| time (UTC) | temp F | wind direction | speed knots | gust knots | rain 1hr in | rain 24hr in | rain mn in | humidity % | barometer mb |
| 20260509093017 | 52 | 0 | 8.7 | 14.8 | 0.00 | 0.01 | 0.00 | 91 | 986.3 |
| 20260509090016 | 53 | 0 | 8.7 | 13.0 | 0.00 | 0.01 | 0.00 | 90 | 986.1 |
| 20260509083016 | 53 | 0 | 8.7 | 11.3 | 0.00 | 0.01 | 0.00 | 91 | 986.1 |
| 20260509080032 | 53 | 0 | 8.7 | 13.0 | 0.00 | 0.01 | 0.00 | 91 | 986.2 |
| 20260509073017 | 54 | 0 | 8.7 | 13.0 | 0.00 | 0.01 | 0.00 | 90 | 986.3 |
| 20260509070017 | 54 | 0 | 8.7 | 13.9 | 0.00 | 0.01 | 0.00 | 90 | 986.3 |
| 20260509063016 | 54 | 0 | 7.8 | 13.0 | 0.00 | 0.01 | 0.00 | 90 | 986.4 |
| 20260509060016 | 54 | 0 | 7.8 | 12.2 | 0.00 | 0.01 | 0.00 | 89 | 986.8 |
| 20260509053017 | 55 | 0 | 8.7 | 15.6 | 0.00 | 0.01 | 0.00 | 88 | 987.0 |
| 20260509050016 | 55 | 0 | 8.7 | 13.0 | 0.00 | 0.01 | 0.01 | 87 | 987.2 |
| 20260509043016 | 55 | 0 | 7.8 | 11.3 | 0.00 | 0.01 | 0.01 | 86 | 987.6 |
| 20260509040036 | 56 | 0 | 8.7 | 12.2 | 0.00 | 0.01 | 0.01 | 85 | 987.8 |
| 20260509033016 | 56 | 0 | 8.7 | 11.3 | 0.00 | 0.01 | 0.01 | 83 | 987.9 |
| 20260509030016 | 56 | 0 | 7.0 | 10.4 | 0.00 | 0.01 | 0.01 | 81 | 987.4 |
| 20260509023017 | 57 | 0 | 7.0 | 10.4 | 0.00 | 0.01 | 0.01 | 80 | 987.5 |
| 20260509020016 | 58 | 0 | 7.0 | 12.2 | 0.00 | 0.01 | 0.01 | 77 | 987.2 |
| 20260509013016 | 60 | 0 | 8.7 | 13.9 | 0.00 | 0.01 | 0.01 | 75 | 987.0 |
| 20260509010016 | 61 | 0 | 9.6 | 14.8 | 0.00 | 0.01 | 0.01 | 72 | 986.8 |
| 20260509003016 | 62 | 0 | 8.7 | 13.0 | 0.00 | 0.01 | 0.01 | 70 | 987.1 |
| 20260509000017 | 64 | 0 | 12.2 | 17.4 | 0.00 | 0.02 | 0.01 | 65 | 987.3 |
| 20260508233017 | 66 | 0 | 10.4 | 16.5 | 0.00 | 0.02 | 0.01 | 63 | 987.4 |
| 20260508230017 | 69 | 0 | 9.6 | 16.5 | 0.00 | 0.02 | 0.01 | 46 | 987.3 |
| 20260508223017 | 70 | 0 | 7.8 | 13.9 | 0.00 | 0.02 | 0.01 | 41 | 987.4 |
| 20260508220017 | 71 | 0 | 10.4 | 18.2 | 0.00 | 0.02 | 0.01 | 40 | 987.5 |
| 20260508213017 | 69 | 0 | 10.4 | 16.5 | 0.00 | 0.02 | 0.01 | 41 | 987.7 |
| 20260508210017 | 69 | 0 | 12.2 | 20.0 | 0.00 | 0.02 | 0.01 | 45 | 988.0 |
| 20260508203017 | 69 | 0 | 12.2 | 18.2 | 0.00 | 0.02 | 0.01 | 44 | 988.4 |
| 20260508200017 | 67 | 0 | 11.3 | 17.4 | 0.00 | 0.02 | 0.01 | 54 | 988.9 |
| 20260508193017 | 66 | 0 | 12.2 | 17.4 | 0.00 | 0.02 | 0.01 | 57 | 989.3 |
| 20260508190017 | 65 | 0 | 10.4 | 16.5 | 0.00 | 0.02 | 0.01 | 61 | 989.3 |
| 20260508183016 | 64 | 0 | 7.0 | 12.2 | 0.00 | 0.02 | 0.01 | 64 | 989.5 |
| 20260508180017 | 62 | 0 | 6.1 | 9.6 | 0.00 | 0.02 | 0.01 | 68 | 989.7 |
| 20260508173017 | 61 | 0 | 7.8 | 11.3 | 0.00 | 0.02 | 0.01 | 68 | 990.2 |
| 20260508170037 | 60 | 0 | 8.7 | 13.9 | 0.00 | 0.02 | 0.01 | 72 | 990.4 |
| 20260508163017 | 59 | 0 | 10.4 | 15.6 | 0.00 | 0.02 | 0.01 | 75 | 991.0 |
| 20260508160017 | 58 | 0 | 8.7 | 13.9 | 0.00 | 0.02 | 0.01 | 77 | 991.0 |
| 20260508153017 | 56 | 0 | 7.0 | 11.3 | 0.01 | 0.02 | 0.01 | 80 | 990.9 |
| 20260508150016 | 54 | 0 | 7.0 | 13.9 | 0.01 | 0.02 | 0.01 | 83 | 990.4 |
| 20260508143037 | 54 | 0 | 5.2 | 16.5 | 0.00 | 0.01 | 0.00 | 80 | 991.5 |
| 20260508140017 | 56 | 0.0 | 3.5 | 0.00 | 0.01 | 0.00 | 77 | 990.6 | |
| 20260508133037 | 55 | 0 | 1.7 | 5.2 | 0.00 | 0.01 | 0.00 | 77 | 991.0 |
| 20260508130017 | 54 | 0 | 1.7 | 3.5 | 0.00 | 0.01 | 0.00 | 81 | 991.0 |
| 20260508123017 | 52 | 0 | 3.5 | 7.0 | 0.00 | 0.01 | 0.00 | 80 | 990.8 |
| 20260508120017 | 52 | 0 | 2.6 | 4.3 | 0.00 | 0.01 | 0.00 | 79 | 990.8 |
| 20260508113037 | 52 | 0 | 2.6 | 3.5 | 0.00 | 0.01 | 0.00 | 77 | 990.5 |
| 20260508110017 | 52 | 0 | 2.6 | 4.3 | 0.00 | 0.01 | 0.00 | 77 | 990.5 |
| 20260508103017 | 51 | 45 | 1.7 | 3.5 | 0.00 | 0.01 | 0.00 | 79 | 990.6 |
| 20260508100017 | 50 | 45 | 1.7 | 3.5 | 0.00 | 0.01 | 0.00 | 82 | 990.3 |